Regional Weather Roundup
Issued by NWS Newport/Morehead, NC

Home | Current Version | Previous Version | Text Only | Print | Product List | Glossary On
Versions: 1 2 3 4 5 6 7 8 9 10 11 12 13 14 15 16 17 18 19 20 21 22 23 24 25 26 27 28 29 30 31 32 33 34 35 36 37 38 39 40 41 42 43 44 45 46 47 48 49 50
000
ASUS42 KMHX 251525
RWRMHX
WEATHER ROUNDUP FOR EASTERN NORTH CAROLINA
NATIONAL WEATHER SERVICE NEWPORT/MOREHEAD CITY NC
1000 AM EST SUN FEB 25 2018

NOTE: "FAIR" INDICATES FEW OR NO CLOUDS BELOW 12,000 FEET
WITH NO SIGNIFICANT WEATHER AND/OR OBSTRUCTIONS TO VISIBILITY

NCZ015>017-031-032-045>047-102-103-251600-
NORTH COAST

CITY           SKY/WX    TMP DP  RH WIND       PRES   REMARKS
EDENTON        FAIR      74  65  73 SW15G22   30.05F
ELIZABETH CITY FAIR      72  66  81 SW16G24   30.05F
KITTY HAWK     FAIR      72  64  78 SW13G20   30.05F
MANTEO         PTSUNNY   70  62  75 W20       30.08S

$$

NCZ045>047-081-094-103-104-251600-
CENTRAL COAST

CITY           SKY/WX    TMP DP  RH WIND       PRES   REMARKS
FRISCO         FAIR      70  64  81 SW10      30.12S

$$

NCZ095-097-098-100-101-251600-
SOUTHERN COAST

CITY           SKY/WX    TMP DP  RH WIND       PRES   REMARKS
BEAUFORT       FAIR      71  65  81 SW17G24   30.12S
CEDAR ISLAND   NOT AVBL
JACKSONVILLE   FAIR      77  64  64 SW10G16   30.10S
PINEY ISLAND   NOT AVBL
WILMINGTON     FAIR      76  62  62 SW14G23   30.11F


$$

NCZ011>013-027>030-043-044-078>080-089-090>093-098-251600-
COASTAL PLAIN

CITY           SKY/WX    TMP DP  RH WIND       PRES   REMARKS
AHOSKIE        FAIR      74  63  68 SW6       30.03S
CLINTON        FAIR      73  64  72 SW14G20   30.09F
ELIZABETHTOWN  NOT AVBL
GOLDSBORO      FAIR      74  62  66 SW16      30.05F
GREENVILLE     FAIR      77  61  57 SW14G20   30.08S
HAVELOCK       MOSUNNY   74  67  78 MISG      30.12S
KENANSVILLE    FAIR      75  63  64 SW8G21    30.10S
KINSTON        FAIR      75  63  64 SW20      30.08F
NEW BERN       FAIR      75  64  68 SW13G18   30.11S
RICHLANDS      FAIR      77  66  68 SW14      30.11S
ROCKY MOUNT    FAIR      72  61  68 SW14G22   30.06R
WASHINGTON     FAIR      76  63  64 SW17      30.07F
WHITEVILLE     PTSUNNY   74  63  67 SW9G17    30.11S

$$

AMZ130-135-150-152-154-156-158-170-250-252-270-ANZ085-086-088-633-658-670-251600-
MARINE OBSERVATIONS

STATION/POSITION TIME  TEMP    WIND        PRES    WAVE   SWELL
                       AIR SEA DIR/SP/G            HT/PER HT/PER
                 (UTC) (F)     (DEG/KT/KT) (MB)    (FT/S) (FT/S)
CHESAPEAKE LIGHT NOT AVBL
64 E VA BEACH    1450   56 50  210/ 16/ 17 1017.9    4/ 8   2/ 8
DUCK             1500   69 46  210/ 17/ 21 1017.2
2 E DUCK         1500      46                N/A     2/10
OREGON INLET     1500   63 57  200/ 17/ 18 1018.7
13E OREGON INLT  1448      49                N/A     4/10   2/10
HATTERAS CG      1500   68 61  230/ 12/ 17 1019.8
DIAMOND BUOY     1510   73 73  230/ 19/ 25 1020.5
CAPE LOOKOUT     1500          220/ 11/ 15 1020.5
BEAUFORT LAB     1500   68 60  230/  5/ 11 1020.3
30 SE NEW RVR IN 1408   71 70  210/ 14/ 17 1020.4
30 SE NEW RVR IN 1500      70                N/A     5/10   2/11
27 SE WRIGHTSVLE 1408   70 69  220/ 14/ 19 1020.5
5 SE WRIGHTSVLE  1508   62 58  210/ 10/ 14 1020.1
225 S CAPE HAT   1450   72 71  190/ 14/ 16 1023.8    4/ 9   3/ 9
41 SE CHARLESTON 1510   71 69  220/ 14/ 16 1021.6

$$




USA.gov is the U.S. government's official web portal to all federal, state and local government web resources and services.